Terug naar catalogus

ASIASAT 1

ActiefCommunicatieGEO
NORAD 20558·PAYLOAD·🇸🇭 SH

Gelanceerd Apr 7, 1990 vanaf Xichang Satellite Launch Center

Loading…

TLE

VersSource: Space-Track

Epoch: Sep 14, 2026, 08:10 UTC

1 20558U 90030A   26257.34041830 -.00000005  00000-0  00000-0 0  9993
2 20558  14.9371 358.3445 0002716 287.7234  84.7593  0.99240277 47106

Volg ASIASAT 1 in realtime met AllMySat

Download on the App Store